AU595 Weather Reports


Display with metric or nautical units.
time (UTC)temp
F
wind
direction
speed
MPH
gust
MPH
rain 1hr
in
rain 24hr
in
rain mn
in
humidity
%
barometer
mb
20210922085415 71 0.0 0.0 0.01 0.23 0.02 85 1015.4
20210922084415 71 0.0 0.0 0.01 0.23 0.02 84 1015.5
20210922083415 71 0.0 0.0 0.01 0.23 0.02 85 1015.5
20210922082415 71 0.0 0.0 0.00 0.22 0.01 85 1015.4
20210922081415 71 0.0 0.0 0.00 0.22 0.01 85 1015.7
20210922080415 71 0.0 0.0 0.00 0.22 0.01 84 1015.7
20210922075415 71 0.0 0.0 0.00 0.22 0.01 84 1015.7
20210922074415 71 0.0 0.0 0.00 0.22 0.01 85 1015.7
20210922073523 71 0.0 0.0 0.00 0.22 0.01 85 1015.7
20210922072815 71 0.0 0.0 0.00 0.22 0.01 85 1015.9
20210922071815 71 0.0 0.0 0.01 0.22 0.01 85 1015.9
20210922070815 71 0.0 0.0 0.01 0.22 0.01 85 1016.0
20210922065815 72 0.0 0.0 0.01 0.22 0.01 85 1015.9
20210922064815 72 0.0 0.0 0.01 0.22 0.01 85 1016.2
20210922063815 72 0.0 0.0 0.01 0.22 0.01 85 1016.1
20210922062815 72 0.0 0.0 0.01 0.22 0.01 84 1016.3
20210922061815 72 0.0 0.0 0.00 0.21 0.00 84 1016.5
20210922060815 72 0.0 0.0 0.00 0.21 0.00 84 1016.6
20210922055817 72 0.0 0.0 0.00 0.21 0.00 84 1016.7
20210922054817 72 0.0 0.0 0.00 0.21 0.00 84 1016.8
20210922053817 72 0.0 0.0 0.00 0.21 0.00 85 1016.9
20210922052817 72 0.0 0.0 0.00 0.21 0.00 85 1016.8
20210922051817 72 0.0 0.0 0.00 0.21 0.00 85 1016.9
20210922050817 72 0.0 0.0 0.00 0.21 0.00 84 1017.0
20210922045815 72 0.0 0.0 0.00 0.21 0.21 84 1017.2
20210922044815 72 0.0 0.0 0.00 0.21 0.21 84 1017.3
20210922043815 72 0.0 0.0 0.00 0.21 0.21 84 1017.5
20210922042815 72 0.0 0.0 0.00 0.21 0.21 84 1017.4
20210922041815 73 0.0 0.0 0.00 0.21 0.21 84 1017.5
20210922040815 73 0.0 0.0 0.01 0.21 0.21 84 1017.5
20210922035815 73 0.0 0.0 0.01 0.21 0.21 84 1017.5
20210922034815 73 0.0 0.0 0.01 0.21 0.21 84 1017.6
20210922033815 73 0.0 0.0 0.01 0.21 0.21 84 1017.6
20210922032815 73 0.0 0.0 0.01 0.21 0.21 84 1017.6
20210922031816 73 0.0 0.0 0.01 0.21 0.21 84 1017.7
20210922030815 73 0.0 0.0 0.00 0.20 0.20 84 1017.9
20210922025815 73 0.0 0.0 0.00 0.20 0.20 84 1017.9
20210922024815 74 0.0 0.0 0.00 0.20 0.20 84 1017.9
20210922023815 74 0.0 0.0 0.00 0.20 0.20 84 1017.7
20210922022913 74 0.0 0.0 0.00 0.20 0.20 84 1017.8
20210922022215 74 0.0 0.0 0.00 0.20 0.20 84 1017.9
20210922021215 74 0.0 0.0 0.00 0.20 0.20 84 1018.0
20210922020215 74 0.0 0.0 0.00 0.20 0.20 84 1017.9
20210922015215 74 0.0 0.0 0.00 0.20 0.20 84 1018.0
20210922014215 74 0.0 0.0 0.00 0.20 0.20 84 1018.0
20210922013215 74 0.0 0.0 0.00 0.20 0.20 84 1017.7
20210922012215 75 0.0 0.0 0.00 0.20 0.20 84 1017.7
20210922011215 75 0.0 0.0 0.00 0.20 0.20 84 1017.6
20210922010216 75 0.0 0.0 0.01 0.20 0.20 84 1017.5
20210922005215 75 0.0 0.0 0.01 0.20 0.20 84 1017.5
20210922004215 75 0.0 0.0 0.01 0.20 0.20 84 1017.2
20210922003215 75 0.0 0.0 0.01 0.20 0.20 84 1017.0
20210922002215 76 0.0 0.0 0.01 0.20 0.20 84 1016.9
20210922001217 76 0.0 0.0 0.01 0.20 0.20 84 1017.0
20210922000218 76 0.0 0.0 0.00 0.19 0.19 84 1016.9
20210921235218 77 0.0 0.0 0.00 0.19 0.19 84 1016.9
20210921234217 77 0.0 0.0 0.00 0.19 0.19 84 1016.8
20210921233215 78 0.0 0.0 0.00 0.19 0.19 84 1016.7
20210921232217 78 0.0 0.0 0.00 0.19 0.19 84 1016.7
20210921231217 78 0.0 0.0 0.00 0.19 0.19 84 1016.5
20210921230217 78 0.0 0.0 0.00 0.19 0.19 84 1016.4
20210921225217 78 0.0 0.0 0.00 0.19 0.19 84 1016.4
20210921224217 78 0.0 0.0 0.00 0.19 0.19 84 1016.5
20210921223217 78 0.0 0.0 0.00 0.19 0.19 84 1016.5
20210921222217 78 0.0 0.0 0.00 0.19 0.19 84 1016.4
20210921221217 78 0.0 0.0 0.01 0.19 0.19 84 1016.5
20210921220217 78 0.0 0.0 0.01 0.19 0.19 84 1016.5
20210921215217 78 0.0 0.0 0.01 0.19 0.19 83 1016.5
20210921214217 79 0.0 0.0 0.01 0.19 0.19 84 1016.5
20210921213216 79 0.0 0.0 0.01 0.19 0.19 83 1016.5
20210921212217 80 0.0 0.0 0.01 0.19 0.19 83 1016.7
20210921211217 80 0.0 0.0 0.00 0.18 0.18 82 1016.8
20210921210216 81 0.0 0.0 0.00 0.18 0.18 80 1016.8
20210921205217 82 0.0 0.0 0.00 0.18 0.18 76 1016.6
20210921204217 82 0.0 0.0 0.00 0.18 0.18 77 1016.7
20210921203217 83 0.0 0.0 0.00 0.18 0.18 76 1016.7
20210921202216 84 0.0 0.0 0.00 0.18 0.18 72 1016.7
20210921201216 84 0.0 0.0 0.00 0.18 0.18 71 1016.8
20210921200217 84 0.0 0.0 0.00 0.18 0.18 67 1016.9
20210921195216 84 0.0 0.0 0.00 0.18 0.18 72 1017.1
20210921194217 84 0.0 0.0 0.00 0.18 0.18 74 1017.3
20210921193217 85 0.0 0.0 0.00 0.18 0.18 70 1017.4
20210921192216 87 0.0 0.0 0.00 0.18 0.18 63 1017.4
20210921191216 88 0.0 0.0 0.00 0.18 0.18 58 1017.5
20210921190217 87 0.0 0.0 0.00 0.18 0.18 65 1017.6
20210921185217 85 0.0 0.0 0.01 0.18 0.18 64 1017.6
20210921184216 85 0.0 0.0 0.01 0.18 0.18 68 1017.9
20210921183216 86 0.0 0.0 0.01 0.18 0.18 63 1018.2
20210921182216 86 0.0 0.0 0.01 0.18 0.18 71 1018.5
20210921181216 85 0.0 0.0 0.01 0.18 0.18 69 1018.5
20210921180216 85 0.0 0.0 0.02 0.18 0.18 63 1018.7
20210921175216 84 0.0 0.0 0.01 0.17 0.17 67 1019.1
20210921174216 84 0.0 0.0 0.01 0.17 0.17 68 1019.3
20210921173216 84 0.0 0.0 0.02 0.17 0.17 69 1019.4
20210921172216 84 0.0 0.0 0.02 0.17 0.17 68 1019.6
20210921171216 84 0.0 0.0 0.03 0.17 0.17 73 1019.7
20210921170216 83 0.0 0.0 0.02 0.16 0.16 76 1019.7
20210921165216 82 0.0 0.0 0.03 0.16 0.16 75 1019.8
20210921164216 81 0.0 0.0 0.04 0.16 0.16 80 1019.9
20210921163215 81 0.0 0.0 0.04 0.15 0.15 81 1020.1
20210921162216 81 0.0 0.0 0.05 0.15 0.15 81 1020.1
20210921161216 79 0.0 0.0 0.06 0.14 0.14 83 1020.0
20210921160216 78 0.0 0.0 0.07 0.14 0.14 84 1020.1
20210921155218 78 0.0 0.0 0.07 0.13 0.13 84 1020.2
20210921154216 77 0.0 0.0 0.08 0.12 0.12 84 1020.1
20210921153216 77 0.0 0.0 0.10 0.12 0.11 84 1020.1
20210921152216 76 0.0 0.0 0.10 0.11 0.10 84 1020.0
20210921151216 76 0.0 0.0 0.08 0.09 0.08 84 1020.2
20210921150216 75 0.0 0.0 0.07 0.09 0.07 84 1019.8
20210921145216 75 0.0 0.0 0.06 0.08 0.06 84 1019.8
20210921144216 75 0.0 0.0 0.04 0.07 0.04 84 1019.9
20210921143216 76 0.0 0.0 0.01 0.05 0.01 84 1020.2
20210921142216 76 0.0 0.0 0.00 0.05 0.00 85 1019.9
20210921141216 75 0.0 0.0 0.00 0.05 0.00 85 1019.8
20210921140216 75 0.0 0.0 0.00 0.06 0.00 85 1019.9
20210921135216 75 0.0 0.0 0.00 0.07 0.00 85 1019.7
20210921134215 74 0.0 0.0 0.00 0.09 0.00 85 1019.7
20210921133216 74 0.0 0.0 0.00 0.10 0.00 85 1019.5
20210921132216 74 0.0 0.0 0.00 0.11 0.00 85 1019.5
20210921131216 74 0.0 0.0 0.00 0.13 0.00 85 1019.5
20210921130216 74 0.0 0.0 0.00 0.14 0.00 85 1019.4
20210921125216 74 0.0 0.0 0.00 0.15 0.00 85 1019.4
20210921124216 74 0.0 0.0 0.00 0.17 0.00 85 1019.5
20210921123216 74 0.0 0.0 0.00 0.18 0.00 85 1019.5
20210921122216 74 0.0 0.0 0.00 0.19 0.00 85 1019.4
20210921121216 74 0.0 0.0 0.00 0.21 0.00 85 1019.3
20210921120249 74 0.0 0.0 0.00 0.22 0.00 85 1019.2
20210921115916 74 0.0 0.0 0.00 0.23 0.00 85 1019.1
20210921114916 74 0.0 0.0 0.00 0.25 0.00 85 1019.2
20210921113916 74 0.0 0.0 0.00 0.27 0.00 85 1019.0
20210921112916 74 0.0 0.0 0.00 0.29 0.00 85 1018.8
20210921111916 74 0.0 0.0 0.00 0.31 0.00 85 1018.7
20210921110915 74 0.0 0.0 0.00 0.33 0.00 85 1018.6
20210921105916 74 0.0 0.0 0.00 0.35 0.00 85 1018.5
20210921104916 74 0.0 0.0 0.00 0.37 0.00 85 1018.3
20210921103916 74 0.0 0.0 0.00 0.39 0.00 85 1018.2
20210921102916 74 0.0 0.0 0.00 0.41 0.00 85 1018.1
20210921101918 74 0.0 0.0 0.00 0.42 0.00 85 1018.1
20210921100916 74 0.0 0.0 0.00 0.43 0.00 85 1018.0
20210921095916 74 0.0 0.0 0.00 0.44 0.00 85 1017.8
20210921094916 74 0.0 0.0 0.00 0.45 0.00 85 1017.9
20210921093916 74 0.0 0.0 0.00 0.47 0.00 85 1017.9
20210921092916 74 0.0 0.0 0.00 0.48 0.00 85 1017.8
20210921091916 74 0.0 0.0 0.00 0.49 0.00 84 1017.8
20210921090915 74 0.0 0.0 0.00 0.51 0.00 84 1017.8
20210921085915 74 0.0 0.0 0.00 0.52 0.00 84 1017.8